Weather in Ayia Napa

Cyprus     34°59′24″N   33°59′55″E
temp.,
°C
wind,
m/s
gust,
m/s
humid.,
%
clouds,
%
prec.,
mm/h
press.,
hPa
HPBL,
m
16 april, fri
fri1600:00+17nne1270100 0.0 101730
03:00+17nne2271100 0.0 101657
06:00+18ne4467100 0.0 1016176
09:00+18ne336395 0.0 1017150
12:00+20ne3457100 0.0 1017148
15:00+20ene446187 0.0 1016153
18:00+19ene45710 0.0 1015104
21:00+19ne33700 0.0 101626
17 april, sat
sat1700:00+19n236125 0.0 101619
03:00+18nne33625 0.0 101630
06:00+18n33585 0.0 101529
09:00+21nne44495 0.0 101778
12:00+21ne44525 0.0 1017125
15:00+21ene4458100 0.0 1016122
18:00+20ne3366100 0.0 101647
21:00+20n226492 0.0 101712
18 april, sun
sun1800:00+21nw4449100 0.0 101717
03:00+20ne3449100 0.0 101519
06:00+19ne446557 0.0 101632
09:00+21ne345898 0.0 101758
12:00+21ne4557100 0.0 101787
15:00+22e5655100 0.0 101678
18:00+22ne3356100 0.0 101531
21:00+21ene44655 0.0 101522
19 april, mon
mon1900:00+20ne4471100 0.0 101443
03:00+20ne5772100 0.0 101281
06:00+20ne337795 0.0 101134
09:00+21ne5769100 0.0 101279
12:00+21e5772100 0.0 101188
15:00+22se4567100 0.0 100998
18:00+21s5769100 0.0 100884
21:00+20ssw61079100 0.0 1008117
20 april, tue
tue2000:00+21wnw6970100 0.0 1009130
03:00+20nw91553100 0.0 1009317
06:00+19sw7964100 0.0 1011234
09:00+20w5741100 0.0 1013233
12:00+22w55395 0.0 1013389
15:00+22wnw344796 0.0 1013449
18:00+20w56545 0.0 1014345
21:00+17nw610660 0.0 1016430